Tracking 19638 objects as of 20-May-2019
HD Live streaming from Space Station
objects crossing your sky now

ECHOSTAR 14

Track ECHOSTAR 14 now!
ECHOSTAR 14 is classified as:


NORAD ID: 36499
Int'l Code: 2010-010A
Perigee: 35,781.9 km
Apogee: 35,805.2 km
Inclination: 0.0 °
Period: 1,436.1 minutes
Semi major axis: 42164 km
RCS: 54.9821 m2 (large)
Launch date: March 20, 2010
Source: United States (US)
Launch site: TYURATAM MISSILE AND SPACE COMPLEX (TTMTR)

Designed to last up to 15 years, EchoStar 14 carries 103 Ku-band transponders that will reach customers across North America.
aabbcc
Your satellite tracking list
Your tracking list is empty




NASA's NSSDC Master Catalog

Two Line Element Set (TLE):
1 36499U 10010A   19139.78035486 -.00000010  00000-0  00000+0 0  9998
2 36499   0.0137 288.1164 0002764 133.5178 337.5432  1.00272412 33610
Source of the keplerian elements: AFSPC